Location: Sternwarte ZA, Rosenfeld-Brittheim
(48.2889°N, 8.6789°E)
Time: 03:51:21
(UTC+02:00)

ISS - Pass Details

Date: 24 May 2017
Orbit: 401 x 408 km, 51.6° (Epoch: 25 June)

Event Time Altitude Azimuth Distance (km) Brightness Sun altitude
Rises 01:51:46 0° 279° (W) 2,338 0.1 -20.6°
Reaches altitude 10° 01:53:56 10° 286° (WNW) 1,475 -0.9 -20.6°
Maximum altitude 01:57:07 44° 1° (N) 577 -2.6 -20.5°
Drops below altitude 10° 02:00:18 10° 75° (ENE) 1,470 -0.7 -20.4°
Sets 02:02:26 0° 82° (E) 2,328 0.3 -20.4°
